This demonstration page uses our WeatherBlox Daily Observations layout. Learn more.

38.88101, -77.10428

Hourly Observations for March 30, 2020

Temp ( °F °C ) Dew Point ( °F °C ) Humidity (%) Winds ( mph kmh ) Pressure ( in mb ) Visibility ( mi km ) Precip ( " mm )
12:01 am 00:01 Mostly Cloudy with Mist and Fog 55 12.8 53 11.7 93 93 NE 6 9 29.86 1011 6 9.65604 0 0
12:36 am 00:36 Cloudy with Mist and Fog 54 12.2 54 12.2 100 100 NE 8 13 29.86 1011 2.5 4.02335 0 0
12:41 am 00:41 Cloudy with Mist and Fog 54 12.2 54 12.2 100 100 NE 7 11 29.86 1011 1.5 2.41401 0 0
12:49 am 00:49 Mostly Cloudy with Fog 55 13 54 12 94 94 ENE 8 13 29.86 1011 0.5 0.80467 0 0
12:52 am 00:52 Mostly Cloudy with Fog 54 12.2 54 12.2 100 100 ENE 8 13 29.86 1011 0.5 0.80467 0 0
12:53 am 00:53 Mostly Cloudy with Fog 54 12.2 54 12.2 100 100 ENE 8 13 29.87 1012 0.25 0.402335 0 0
1:11 am 01:11 Mostly Cloudy with Fog 54 12.2 54 12.2 100 100 NE 5 7 29.87 1012 0.25 0.402335 0 0
1:13 am 01:13 Mostly Cloudy with Fog 54 12.2 54 12.2 100 100 NE 6 9 29.87 1012 1 1.60934 0 0
1:29 am 01:29 Mostly Cloudy with Fog 54 12.2 54 12.2 100 100 NE 7 11 29.88 1012 0.25 0.402335 0 0
1:45 am 01:45 Mostly Cloudy with Fog 54 12.2 54 12.2 100 100 ENE 7 11 29.89 1012 1 1.60934 0 0
1:48 am 01:48 Mostly Cloudy with Fog 54 12 54 12 100 100 NE 7 11 29.89 1012 1 1.60934 0 0
1:52 am 01:52 Mostly Cloudy with Fog 54 12.2 54 12.2 100 100 NE 6 9 29.88 1012 1 1.60934 0 0
2:10 am 02:10 Mostly Cloudy with Fog 54 12.2 54 12.2 100 100 NE 6 9 29.89 1012 1 1.60934 0 0
2:18 am 02:18 Mostly Cloudy with Fog 54 12.2 54 12.2 100 100 NE 5 7 29.9 1013 0.25 0.402335 0 0
2:22 am 02:22 Mostly Cloudy with Fog 54 12.2 54 12.2 100 100 N 5 7 29.9 1013 0.5 0.80467 0 0
2:52 am 02:52 Mostly Cloudy with Fog 54 12.2 54 12.2 100 100 E 5 7 29.91 1013 0.5 0.80467 0 0
3:23 am 03:23 Cloudy with Mist and Fog 54 12.2 54 12.2 100 100 ENE 5 7 29.92 1013 1.5 2.41401 0 0
3:48 am 03:48 Cloudy with Mist and Fog 54 12 54 12 100 100 ENE 7 11 29.92 1013 4 6.43736 0 0
3:52 am 03:52 Cloudy with Mist and Fog 54 12.2 53 11.7 97 97 NE 8 13 29.92 1013 4 6.43736 0 0
4:20 am 04:20 Cloudy 54 12.2 53 11.7 97 97 NE 6 9 29.94 1014 8 12.87472 0 0
4:52 am 04:52 Cloudy 54 12.2 53 11.7 97 97 NE 8 13 29.94 1014 7 11.26538 0 0
5:11 am 05:11 Cloudy 54 12.2 52 11.1 93 93 NE 6 9 29.96 1015 8 12.87472 0 0
5:52 am 05:52 Cloudy 55 12.8 53 11.7 93 93 ENE 3 6 29.97 1015 8 12.87472 0 0
6:14 am 06:14 Cloudy with Mist and Fog 55 12.8 52 11.1 90 90 ESE 6 9 29.98 1015 6 9.65604 0 0
6:52 am 06:52 Cloudy 54 12.2 51 10.6 90 90 ESE 5 7 29.98 1015 10 16.0934 0 0
7:52 am 07:52 Mostly Cloudy 54 12.2 51 10.6 90 90 S 5 7 30.01 1016 9 14.48406 0 0
8:52 am 08:52 Mostly Cloudy 55 12.8 51 10.6 87 87 S 8 13 30.01 1016 9 14.48406 0 0
9:52 am 09:52 Partly Cloudy 57 13.9 52 11.1 83 83 S 12 19 29.98 1015 10 16.0934 0 0
10:52 am 10:52 Mostly Sunny 59 15 52 11.1 78 78 S 10 17 29.95 1014 10 16.0934 0 0
11:52 am 11:52 Mostly Sunny 63 17.2 53 11.7 70 70 S 13 20 29.92 1013 10 16.0934 0 0
12:52 pm 12:52 Mostly Sunny 68 20 44 6.7 42 42 S 16 26 29.87 1012 10 16.0934 0 0
1:52 pm 13:52 Sunny 69 20.6 44 6.7 41 41 S 12 19 29.85 1011 10 16.0934 0 0
2:52 pm 14:52 Mostly Sunny 72 22.2 42 5.6 34 34 SSE 7 11 29.81 1010 10 16.0934 0 0
3:52 pm 15:52 Partly Cloudy 75 23.9 32 0 21 21 WNW 12 19 29.79 1009 10 16.0934 0 0
4:52 pm 16:52 Mostly Cloudy 71 21.7 35 1.7 27 27 NNW 21 33 29.81 1010 10 16.0934 0 0
5:52 pm 17:52 Partly Cloudy 68 20 39 3.9 35 35 N 21 33 29.85 1011 10 16.0934 0 0
6:52 pm 18:52 Partly Cloudy 64 17.8 39 3.9 40 40 NNE 12 19 29.88 1012 10 16.0934 0 0
7:52 pm 19:52 Partly Cloudy 62 16.7 37 2.8 40 40 N 13 20 29.91 1013 10 16.0934 0 0
8:52 pm 20:52 Partly Cloudy 61 16.1 37 2.8 41 41 N 17 28 29.94 1014 10 16.0934 0 0
9:52 pm 21:52 Mostly Clear 58 14.4 37 2.8 46 46 N 13 20 29.96 1015 10 16.0934 0 0
10:52 pm 22:52 Mostly Cloudy 57 13.9 36 2.2 45 45 N 10 17 29.99 1016 10 16.0934 0 0
11:52 pm 23:52 Partly Cloudy 56 13.3 36 2.2 47 47 N 16 26 29.98 1015 10 16.0934 0 0

Powered by AerisWeather